Weather History for KVSF - March, 2014

Change the Weather History Date:

Thursday, March 13, 2014

  Actual Average Record
Temperature  
Mean Temperature 12 °F 30 °F  
Max Temperature 21 °F 41 °F - ()
Min Temperature 2 °F 20 °F - ()
Degree Days  
Heating Degree Days 53 35  
Month to date heating degree days 583 474  
Since 1 July heating degree days 6294 5919  
Cooling Degree Days 0 0  
Month to date cooling degree days 0 0  
Year to date cooling degree days 0 0  
Moisture  
Dew Point 4 °F    
Average Humidity 64    
Maximum Humidity 80    
Minimum Humidity 48    
Precipitation  
Precipitation T in 0.09 in - ()
Month to date precipitation 0.68 0.96  
Year to date precipitation 4.37 6.57  
Sea Level Pressure  
Sea Level Pressure 29.48 in    
Wind  
Wind Speed 9 mph (WNW)    
Max Wind Speed 22 mph    
Max Gust Speed 40 mph    
Visibility 5 miles    
Events Snow    
T = Trace of Precipitation, MM = Missing Value Source: NWS Daily Summary

Daily Weather History Graph

Daily Weather History Graph

Search for Another Location

Airport or City:

Trip Planner

Search our weather history database for the weather conditions in past years. The results will help you decide how hot, cold, wet, or windy it might be!

Date:

Astronomy

Mar. 13, 2014 Rise Set
Actual Time 7:05 AM EDT 6:53 PM EDT
Civil Twilight 6:37 AM EDT 7:22 PM EDT
Nautical Twilight 6:04 AM EDT 7:55 PM EDT
Astronomical Twilight 5:30 AM EDT 8:29 PM EDT
Moon 4:13 PM EDT (3/13) 5:15 AM EDT (3/13)
Length of Visible Light 12h 45m
Length of Day
11h 48m
Waxing Gibbous, 91% of the Moon is Illuminated
Mar 13
Waxing Gibbous
Mar 16
Full
Mar 23
Last Quarter
Mar 30
New
Apr 7
First Quarter

Hourly Weather History & Observations

Time (EDT) Temp. Windchill Dew Point Humidity Pressure Visibility Wind Dir Wind Speed Gust Speed Precip Events Conditions
12:29 AM 21.0 °F 13.4 °F 17.1 °F 85% 29.18 in 0.8 mi Variable 5.8 mph - 0.00 in Snow Light Snow
12:54 AM 21.0 °F 9.3 °F 16.0 °F 81% 29.18 in 0.8 mi North 11.5 mph 25.3 mph 0.00 in Snow Light Snow
1:06 AM 21.0 °F 11.4 °F 16.0 °F 81% 29.17 in 1.2 mi NW 8.1 mph - 0.00 in Snow Light Snow
1:16 AM 19.0 °F 13.9 °F 15.1 °F 85% 29.19 in 1.8 mi Variable 3.5 mph - 0.00 in Snow Light Snow
1:23 AM 19.9 °F 12.1 °F 15.1 °F 81% 29.20 in 2.5 mi Variable 5.8 mph - 0.00 in Snow Light Snow
1:46 AM 19.9 °F 10.1 °F 12.9 °F 74% 29.22 in 4.0 mi NW 8.1 mph 17.3 mph 0.00 in Snow Light Snow
1:54 AM 18.0 °F 8.7 °F 12.9 °F 81% 29.25 in 5.0 mi West 6.9 mph 17.3 mph 0.00 in Snow Light Snow
2:54 AM 15.1 °F 3.3 °F 9.0 °F 77% 29.25 in 7.0 mi West 9.2 mph 19.6 mph 0.00 in Snow Light Snow
3:46 AM 14.0 °F 2.0 °F 8.1 °F 77% 29.23 in 6.0 mi West 9.2 mph - 0.00 in Snow Light Snow
3:54 AM 12.9 °F -0.9 °F 7.0 °F 77% 29.26 in 6.0 mi West 11.5 mph - 0.00 in Snow Light Snow
4:54 AM 12.0 °F -0.4 °F 6.1 °F 77% 29.29 in 3.0 mi WNW 9.2 mph - 0.00 in Snow Light Snow
5:54 AM 12.9 °F 2.6 °F 5.0 °F 71% 29.33 in 5.0 mi Variable 6.9 mph - 0.00 in Snow Light Snow
6:54 AM 10.9 °F -0.8 °F 3.0 °F 70% 29.37 in 2.5 mi NNW 8.1 mph - 0.00 in Snow Light Snow
7:22 AM 10.9 °F 0.2 °F 3.0 °F 70% 29.36 in 2.0 mi Variable 6.9 mph 21.9 mph 0.00 in Snow Light Snow
7:42 AM 10.0 °F -4.5 °F 3.0 °F 73% 29.38 in 1.5 mi WNW 11.5 mph 20.7 mph 0.00 in Snow Light Snow
7:54 AM 9.0 °F -6.6 °F 1.9 °F 73% 29.41 in 1.0 mi WNW 12.7 mph 17.3 mph 0.00 in Snow Light Snow
8:01 AM 9.0 °F -5.9 °F 1.9 °F 73% 29.39 in 0.8 mi WNW 11.5 mph - 0.00 in Snow Light Snow
8:09 AM 9.0 °F 0.6 °F 1.9 °F 73% 29.39 in 1.0 mi Variable 4.6 mph - 0.00 in Snow Light Snow
8:51 AM 10.4 °F -3.3 °F 1.4 °F 67% 29.41 in 1.0 mi NW 10.4 mph 18.4 mph 0.00 in Snow Light Snow
8:54 AM 10.0 °F -2.9 °F -0.0 °F 64% 29.44 in 2.5 mi NNW 9.2 mph 18.4 mph 0.00 in Snow Light Snow
9:01 AM 10.0 °F 0.4 °F 1.0 °F 67% 29.42 in 4.0 mi NNW 5.8 mph - 0.00 in Snow Light Snow
9:47 AM 10.0 °F -2.9 °F 1.0 °F 67% 29.45 in 2.0 mi NW 9.2 mph 20.7 mph 0.00 in Snow Light Snow
9:54 AM 10.0 °F -0.9 °F 1.9 °F 70% 29.49 in 1.8 mi Variable 6.9 mph - 0.00 in Snow Light Snow
10:34 AM 10.9 °F -0.8 °F 1.9 °F 67% 29.47 in 2.5 mi NW 8.1 mph 17.3 mph 0.00 in Snow Light Snow
10:54 AM 10.9 °F 0.2 °F 1.0 °F 64% 29.51 in 3.0 mi Variable 6.9 mph 24.2 mph 0.00 in Snow Light Snow
11:54 AM 12.0 °F -0.4 °F 3.0 °F 67% 29.53 in 6.0 mi NW 9.2 mph 21.9 mph 0.00 in   Haze
12:54 PM 12.9 °F -0.9 °F 3.9 °F 67% 29.56 in 8.0 mi NW 11.5 mph 18.4 mph N/A   Overcast
1:54 PM 15.1 °F 1.1 °F 3.9 °F 61% 29.57 in 6.0 mi West 12.7 mph 20.7 mph 0.00 in Snow Light Snow
2:47 PM 14.0 °F -3.9 °F 3.9 °F 64% 29.56 in 2.5 mi West 20.7 mph 32.2 mph 0.00 in   Overcast
2:54 PM 15.1 °F 1.1 °F 3.9 °F 61% 29.60 in 2.5 mi West 12.7 mph 40.3 mph 0.00 in   Overcast
3:03 PM 15.1 °F 1.8 °F 3.9 °F 61% 29.57 in 7.0 mi West 11.5 mph 26.5 mph 0.00 in   Overcast
3:54 PM 16.0 °F 4.4 °F 5.0 °F 62% 29.63 in 10.0 mi NW 9.2 mph - 0.00 in   Overcast
4:54 PM 16.0 °F 1.1 °F 3.0 °F 57% 29.68 in 7.0 mi NW 15.0 mph 32.2 mph 0.00 in   Partly Cloudy
5:54 PM 15.1 °F -0.6 °F 1.0 °F 54% 29.72 in 10.0 mi NW 16.1 mph 23.0 mph N/A   Partly Cloudy
6:54 PM 14.0 °F 1.2 °F -0.9 °F 52% 29.77 in 10.0 mi NW 10.4 mph 20.7 mph N/A   Clear
7:54 PM 12.9 °F 5.2 °F -2.0 °F 51% 29.83 in 10.0 mi NW 4.6 mph - N/A   Clear
8:54 PM 12.9 °F - -2.0 °F 51% 29.88 in 10.0 mi North - - N/A   Clear
9:54 PM 12.0 °F -1.3 °F -4.0 °F 49% 29.93 in 10.0 mi NNW 10.4 mph 16.1 mph N/A   Clear
10:54 PM 10.9 °F 2.9 °F -5.1 °F 49% 29.96 in 10.0 mi NW 4.6 mph - N/A   Clear
11:54 PM 7.0 °F 0.1 °F -2.0 °F 67% 29.98 in 10.0 mi SW 3.5 mph - N/A   Clear